{"data":{"norad_id":66736,"intl_designator":"2025-276BY","name":"FLOCK 4H-33","alt_names":[],"object_type":"PAYLOAD","status":"ACTIVE","operator":null,"country":"US","launch_date":"2025-11-28","launch_site_code":"AFWTR","launch_vehicle":null,"mission":null,"orbit_class":"UNKNOWN","rcs_meters":null,"size_class":null,"mass_kg":null,"dimensions":null,"purposes":["earth_obs"],"wikipedia_slug":null,"has_3d_model":false,"image_url":null,"decayed_at":null,"tle_current":{"epoch":"2026-05-25T02:38:45.068640Z","epoch_age_seconds":75827,"freshness":"FRESH","line1":"1 66736U 25276BY  26145.11024385  .00004674  00000+0  21625-3 0  9991","line2":"2 66736  97.4226 219.3514 0002915  50.6637 309.4857 15.20617933 26932","mean_motion":15.20617933,"eccentricity":0.0002915,"inclination_deg":97.4226,"raan_deg":219.3514,"arg_perigee_deg":50.6637,"mean_anomaly_deg":309.4857,"bstar":0.00021625,"rev_number":2693,"period_min":94.698343926475,"perigee_km":501.96939182244,"apogee_km":505.98166342605,"semimajor_km":6882.1125276242,"source":"CELESTRAK","updated_at":"2026-05-25T13:38:13.373912Z"}}}